Location: Cluj-Napoca
(46.7712°N, 23.6236°E)
Time: 06:21:42
(UTC+03:00)

ISS - Pass Details

Date: 27 March 2020
Orbit: 417 x 423 km, 51.6° (Epoch: 29 March)

Event Time Altitude Azimuth Distance (km) Brightness Sun altitude
Rises 21:42:57 0° 295° (WNW) 2,363 1.2 -28.1°
Reaches altitude 10° 21:45:04 10° 299° (WNW) 1,498 0.0 -28.3°
Enters shadow 21:46:09 19° 304° (WNW) 1,078 -1.0 -28.5°
